| time (UTC) | temp F | wind direction | speed MPH | gust MPH | rain 1hr in | rain 24hr in | rain mn in | humidity % | barometer mb |
| 20260503201533 | 64 | 66 | 0.0 | 4.0 | 0.00 | 0.00 | 0.00 | 18 | 1034.8 |
| 20260503200031 | 64 | 170 | 0.0 | 3.0 | 0.00 | 0.00 | 0.00 | 18 | 1035.1 |
| 20260503194529 | 62 | 189 | 0.0 | 7.0 | 0.00 | 0.00 | 0.00 | 18 | 1035.2 |
| 20260503193036 | 62 | 140 | 0.0 | 6.0 | 0.00 | 0.00 | 0.00 | 20 | 1035.5 |
| 20260503191525 | 63 | 268 | 0.0 | 6.0 | 0.00 | 0.00 | 0.00 | 19 | 1035.7 |
| 20260503190030 | 62 | 351 | 0.0 | 5.0 | 0.00 | 0.00 | 0.00 | 21 | 1036.0 |
| 20260503184521 | 62 | 139 | 1.0 | 5.0 | 0.00 | 0.00 | 0.00 | 20 | 1036.2 |
| 20260503183018 | 61 | 200 | 0.0 | 3.0 | 0.00 | 0.00 | 0.00 | 21 | 1036.6 |
| 20260503181516 | 61 | 181 | 1.0 | 6.0 | 0.00 | 0.00 | 0.00 | 23 | 1037.0 |
| 20260503180013 | 60 | 346 | 0.0 | 3.0 | 0.00 | 0.00 | 0.00 | 21 | 1037.4 |
| 20260503174507 | 59 | 355 | 0.0 | 1.0 | 0.00 | 0.00 | 0.00 | 22 | 1037.7 |
| 20260503173015 | 59 | 11 | 0.0 | 7.0 | 0.00 | 0.00 | 0.00 | 23 | 1037.9 |
| 20260503171502 | 59 | 321 | 0.0 | 2.0 | 0.00 | 0.00 | 0.00 | 25 | 1038.1 |
| 20260503100107 | 35 | 229 | 0.0 | 0.0 | 0.00 | 0.00 | 0.00 | 61 | 1040.1 |
| 20260503081545 | 37 | 229 | 0.0 | 0.0 | 0.00 | 0.00 | 0.00 | 57 | 1040.9 |
| 20260503071539 | 37 | 229 | 0.0 | 0.0 | 0.00 | 0.00 | 0.00 | 54 | 1041.4 |
| 20260503054530 | 38 | 229 | 0.0 | 0.0 | 0.00 | 0.00 | 0.00 | 48 | 1041.8 |
| 20260503053020 | 39 | 229 | 0.0 | 0.0 | 0.00 | 0.00 | 0.00 | 49 | 1041.8 |
| 20260503051519 | 39 | 229 | 0.0 | 0.0 | 0.00 | 0.00 | 0.00 | 47 | 1041.8 |
| 20260503050020 | 39 | 229 | 0.0 | 0.0 | 0.00 | 0.00 | 0.00 | 48 | 1041.8 |
| 20260503044518 | 40 | 229 | 0.0 | 0.0 | 0.00 | 0.00 | 0.00 | 48 | 1041.8 |
| 20260503043017 | 41 | 229 | 0.0 | 0.0 | 0.00 | 0.00 | 0.00 | 45 | 1041.7 |
| 20260503041517 | 41 | 229 | 0.0 | 0.0 | 0.00 | 0.00 | 0.00 | 43 | 1041.6 |
| 20260503040016 | 42 | 229 | 0.0 | 0.0 | 0.00 | 0.00 | 0.00 | 42 | 1041.6 |
| 20260503034516 | 43 | 229 | 0.0 | 0.0 | 0.00 | 0.00 | 0.00 | 42 | 1041.5 |
| 20260503033023 | 44 | 229 | 0.0 | 0.0 | 0.00 | 0.00 | 0.00 | 39 | 1041.5 |
| 20260503031515 | 45 | 229 | 0.0 | 0.0 | 0.00 | 0.00 | 0.00 | 38 | 1041.5 |
| 20260503030014 | 47 | 229 | 0.0 | 0.0 | 0.00 | 0.00 | 0.00 | 35 | 1041.6 |
| 20260503024514 | 48 | 229 | 0.0 | 0.0 | 0.00 | 0.00 | 0.00 | 31 | 1041.5 |
| 20260503023013 | 49 | 229 | 0.0 | 0.0 | 0.00 | 0.00 | 0.00 | 29 | 1041.5 |
| 20260503021515 | 50 | 229 | 0.0 | 0.0 | 0.00 | 0.00 | 0.00 | 28 | 1041.3 |
| 20260503020012 | 52 | 229 | 0.0 | 0.0 | 0.00 | 0.00 | 0.00 | 26 | 1041.3 |
| 20260503014511 | 54 | 229 | 0.0 | 0.0 | 0.00 | 0.00 | 0.00 | 22 | 1041.2 |
| 20260503013011 | 56 | 229 | 0.0 | 0.0 | 0.00 | 0.00 | 0.00 | 19 | 1041.1 |
| 20260503011511 | 57 | 229 | 0.0 | 0.0 | 0.00 | 0.00 | 0.00 | 18 | 1041.0 |
| 20260503010009 | 58 | 229 | 0.0 | 1.0 | 0.00 | 0.00 | 0.00 | 18 | 1041.0 |
| 20260503004508 | 59 | 229 | 0.0 | 0.0 | 0.00 | 0.00 | 0.00 | 17 | 1041.0 |
| 20260503003015 | 59 | 229 | 0.0 | 0.0 | 0.00 | 0.00 | 0.00 | 17 | 1041.1 |
| 20260503001505 | 60 | 229 | 0.0 | 2.0 | 0.00 | 0.00 | 0.00 | 17 | 1041.2 |
| 20260503000003 | 60 | 229 | 0.0 | 4.0 | 0.00 | 0.00 | 0.00 | 17 | 1041.2 |
| 20260502234502 | 61 | 229 | 0.0 | 3.0 | 0.00 | 0.00 | 0.00 | 15 | 1041.2 |
| 20260502233001 | 61 | 229 | 0.0 | 4.0 | 0.00 | 0.00 | 0.00 | 17 | 1041.3 |
| 20260502231604 | 62 | 229 | 0.0 | 4.0 | 0.00 | 0.00 | 0.00 | 17 | 1041.2 |
| 20260502230059 | 63 | 228 | 0.0 | 2.0 | 0.00 | 0.00 | 0.00 | 16 | 1041.3 |
| 20260502224557 | 63 | 228 | 0.0 | 3.0 | 0.00 | 0.00 | 0.00 | 17 | 1041.4 |
| 20260502223054 | 63 | 228 | 0.0 | 3.0 | 0.00 | 0.00 | 0.00 | 17 | 1041.6 |
| 20260502221551 | 63 | 210 | 0.0 | 3.0 | 0.00 | 0.00 | 0.00 | 17 | 1041.9 |
| 20260502220049 | 63 | 201 | 1.0 | 11.0 | 0.00 | 0.00 | 0.00 | 20 | 1042.1 |
| 20260502214557 | 63 | 218 | 1.0 | 4.0 | 0.00 | 0.00 | 0.00 | 18 | 1042.4 |
| 20260502213043 | 63 | 220 | 0.0 | 2.0 | 0.00 | 0.00 | 0.00 | 20 | 1042.9 |
| 20260502211541 | 64 | 215 | 1.0 | 4.0 | 0.00 | 0.00 | 0.00 | 19 | 1043.3 |
| 20260502210041 | 63 | 212 | 0.0 | 1.0 | 0.00 | 0.00 | 0.00 | 24 | 1043.5 |
| 20260502204536 | 62 | 212 | 0.0 | 2.0 | 0.00 | 0.00 | 0.00 | 23 | 1043.8 |
| 20260502203036 | 63 | 212 | 1.0 | 7.0 | 0.00 | 0.00 | 0.00 | 22 | 1043.9 |